EW4036 Weather Reports


time (UTC)temp
F
wind
direction
speed
knots
gust
knots
rain 1hr
in
rain 24hr
in
rain mn
in
humidity
%
barometer
mb
20260507073138 49 275 5.2 7.0 0.00 0.00 0.00 63 1013.9
20260507071541 48 297 1.7 3.5 0.00 0.00 0.00 66 1013.9
20260507070137 47 312 2.6 5.2 0.00 0.00 0.00 67 1013.8
20260507064548 46 313 1.7 5.2 0.00 0.00 0.00 72 1013.7
20260507063043 45 279 1.7 4.3 0.00 0.00 0.00 75 1013.7
20260507061543 44 290 1.7 4.3 0.00 0.00 0.00 77 1013.5
20260507060138 42 316 1.7 4.3 0.00 0.00 0.00 78 1013.4
20260507054539 41 280 2.6 4.3 0.00 0.00 0.00 79 1013.3
20260507053138 41 236 3.5 5.2 0.00 0.00 0.00 80 1013.3
20260507051544 40 248 2.6 4.3 0.00 0.00 0.00 80 1013.1
20260507050042 39 210 1.7 3.5 0.00 0.00 0.00 81 1013.1
20260507044548 38 202 1.7 3.5 0.00 0.00 0.00 82 1013.0
20260507043055 37 179 1.7 4.3 0.00 0.00 0.00 82 1012.9
20260507041543 36 164 0.9 2.6 0.00 0.00 0.00 81 1012.8
20260507040042 36 138 0.9 2.6 0.00 0.00 0.00 82 1012.7
20260507034541 36 138 1.7 3.5 0.00 0.00 0.00 81 1012.5
20260507033039 36 129 1.7 3.5 0.00 0.00 0.00 81 1012.4
20260507031546 36 108 0.0 2.6 0.00 0.00 0.00 82 1012.3
20260507030039 36 96 1.7 2.6 0.00 0.00 0.00 83 1012.2
20260507024547 36 82 0.9 1.7 0.00 0.00 0.00 82 1012.1
20260507023038 36 226 0.0 3.5 0.00 0.00 0.00 79 1012.1
20260507021540 38 103 0.0 1.7 0.00 0.00 0.00 78 1012.0
20260507020049 38 100 0.9 1.7 0.00 0.00 0.00 77 1011.9
20260507014544 38 90 0.9 1.7 0.00 0.00 0.00 75 1011.7
20260507013038 39 225 1.7 3.5 0.00 0.00 0.00 73 1011.8
20260507011546 40 88 1.7 4.3 0.00 0.00 0.00 72 1011.4
20260507010138 40 76 0.0 4.3 0.00 0.00 0.00 72 1011.5
20260507004544 40 92 0.0 1.7 0.00 0.00 0.00 72 1011.4
20260507003038 40 117 0.0 0.9 0.00 0.00 0.00 71 1011.4
20260507001606 40 118 0.0 2.6 0.00 0.00 0.00 70 1011.4
20260507000043 41 75 0.0 1.7 0.00 0.00 0.00 70 1011.4
20260506234551 41 69 0.9 2.6 0.00 0.00 0.00 69 1011.4
20260506233041 42 90 0.0 1.7 0.00 0.00 0.00 66 1011.4
20260506231543 43 89 0.0 1.7 0.00 0.00 0.00 65 1011.4
20260506230137 43 117 0.9 4.3 0.00 0.00 0.00 64 1011.3
20260506224541 43 107 1.7 4.3 0.00 0.00 0.00 63 1011.2
20260506223040 44 122 2.6 6.1 0.00 0.00 0.00 61 1011.2
20260506221551 45 108 3.5 6.1 0.00 0.00 0.00 60 1011.2
20260506220040 45 100 3.5 11.3 0.00 0.00 0.00 59 1011.1
20260506214549 45 124 3.5 8.7 0.00 0.00 0.00 58 1011.0
20260506213041 46 105 3.5 13.9 0.00 0.00 0.00 57 1011.0
20260506211541 45 101 6.1 9.6 0.00 0.00 0.00 57 1010.8
20260506210139 45 80 2.6 6.1 0.00 0.00 0.00 56 1010.8
20260506204545 46 98 5.2 9.6 0.00 0.00 0.00 55 1010.8
20260506203139 46 108 2.6 8.7 0.00 0.00 0.00 54 1010.8
20260506201541 46 69 2.6 7.8 0.00 0.00 0.00 51 1010.9
20260506200139 46 103 4.3 8.7 0.00 0.00 0.00 51 1010.8
20260506194541 46 95 2.6 7.0 0.00 0.00 0.00 48 1010.7
20260506193138 46 57 0.9 3.5 0.00 0.00 0.00 49 1010.6
20260506191543 49 33 0.0 1.7 0.00 0.00 0.00 46 1010.5
20260506190137 49 125 0.0 1.7 0.00 0.00 0.00 46 1010.4
20260506184546 52 13 0.0 2.6 0.00 0.00 0.00 41 1010.4
20260506183044 52 13 0.9 2.6 0.00 0.00 0.00 39 1010.3
20260506181548 53 14 1.7 4.3 0.00 0.00 0.00 39 1010.2
20260506180038 53 345 1.7 5.2 0.00 0.00 0.00 39 1010.2
20260506174539 53 325 3.5 6.1 0.00 0.00 0.00 38 1010.1
20260506173043 54 334 3.5 8.7 0.00 0.00 0.00 35 1010.1
20260506171541 55 321 5.2 8.7 0.00 0.00 0.00 33 1010.0
20260506170139 56 360 4.3 7.0 0.00 0.00 0.00 34 1010.0
20260506164555 56 342 4.3 10.4 0.00 0.00 0.00 33 1010.0
20260506163042 55 330 6.1 11.3 0.00 0.00 0.00 32 1009.9
20260506161546 56 292 6.1 11.3 0.00 0.00 0.00 31 1009.9
20260506160038 57 307 5.2 7.8 0.00 0.00 0.00 29 1009.8
20260506154543 57 119 1.7 3.5 0.00 0.00 0.00 27 1010.0
20260506153039 56 166 0.9 7.0 0.00 0.00 0.00 28 1009.9
20260506151541 57 113 4.3 8.7 0.00 0.00 0.00 26 1010.0
20260506150045 56 86 4.3 11.3 0.00 0.00 0.00 25 1010.1
20260506144540 57 90 2.6 7.0 0.00 0.00 0.00 25 1010.1
20260506143138 56 315 4.3 9.6 0.00 0.00 0.00 25 1010.3
20260506141637 57 174 3.5 7.0 0.00 0.00 0.00 25 1010.4
20260506140138 57 262 3.5 9.6 0.00 0.00 0.00 25 1010.5
20260506134637 57 67 0.9 9.6 0.00 0.00 0.00 25 1010.5
20260506133052 56 271 2.6 7.0 0.00 0.00 0.00 25 1010.7
20260506131542 56 169 6.1 10.4 0.00 0.00 0.00 25 1010.9
20260506130040 56 290 0.9 7.0 0.00 0.00 0.00 26 1010.9
20260506124542 55 110 2.6 7.8 0.00 0.00 0.00 25 1011.1
20260506123137 55 134 4.3 9.6 0.00 0.00 0.00 25 1011.2
20260506121540 55 231 0.0 11.3 0.00 0.00 0.00 27 1011.3
20260506120056 54 150 4.3 9.6 0.00 0.00 0.00 25 1011.4
20260506114544 54 202 5.2 10.4 0.00 0.00 0.00 25 1011.4
20260506113038 54 147 4.3 11.3 0.00 0.00 0.00 26 1011.7
20260506111544 54 82 5.2 11.3 0.00 0.00 0.00 27 1011.6
20260506110039 53 192 2.6 10.4 0.00 0.00 0.00 26 1011.6
20260506104553 54 142 7.8 13.0 0.00 0.00 0.00 27 1011.8
20260506103044 53 71 6.1 11.3 0.00 0.00 0.00 27 1012.0
20260506101540 53 188 3.5 13.0 0.00 0.00 0.00 30 1012.1
20260506100138 52 96 5.2 10.4 0.00 0.00 0.00 29 1012.2
20260506094545 52 99 6.1 10.4 0.00 0.00 0.00 28 1012.3
20260506093037 52 228 3.5 11.3 0.00 0.00 0.00 29 1012.3
20260506091539 52 92 3.5 7.8 0.00 0.00 0.00 29 1012.4
20260506090041 52 184 6.1 11.3 0.00 0.00 0.00 33 1012.4
20260506084612 51 200 3.5 7.8 0.00 0.00 0.00 37 1012.4
20260506083137 51 174 6.1 11.3 0.00 0.00 0.00 37 1012.4
20260506081552 50 98 1.7 7.8 0.00 0.00 0.00 34 1012.5
20260506080137 50 165 5.2 9.6 0.00 0.00 0.00 39 1012.6